Regional Weather Roundup
Issued by NWS Upton, NY

Current Version | Previous Version | Text Only | Print | Product List | Glossary Off
Versions: 1 2 3 4 5 6 7 8 9 10 11 12 13 14 15 16 17 18 19 20 21 22 23 24 25 26 27 28 29 30 31 32 33 34 35 36 37 38 39 40 41 42 43 44 45 46 47 48 49 50
000 ASUS41 KOKX 180005 RWROKX REGIONAL WEATHER ROUNDUP NATIONAL WEATHER SERVICE NEW YORK NY 800 PM EDT WED SEP 17 2014 NOTE: "FAIR" INDICATES FEW OR NO CLOUDS BELOW 12,000 FEET WITH NO SIGNIFICANT WEATHER AND/OR OBSTRUCTIONS TO VISIBILITY. NYZ071-072-176-178-NJZ106-104-180100- NEW YORK CITY METRO AREA CITY SKY/WX TMP DP RH WIND PRES REMARKS CENTRAL PARK CLEAR 68 41 37 W3 30.00S LAGUARDIA APRT PTCLDY 70 45 40 NW10 29.97S KENNEDY INTL PTCLDY 65 50 58 SW10 29.99R NEWARK/LIBERTY PTCLDY 68 43 40 NW6 29.98R BRNX BOT. GARD N/A 61 43 51 N1 29.99F TETERBORO CLEAR 68 41 37 CALM 29.97R $$ NYZ177-179-078>081-180100- LONG ISLAND NEW YORK CITY SKY/WX TMP DP RH WIND PRES REMARKS FARMINGDALE CLEAR 64 49 57 SW5 29.99R ISLIP PTCLDY 61 49 64 CALM 29.98R SHIRLEY CLEAR 57 47 69 CALM 29.99R WESTHAMPTON CLEAR 54 44 69 CALM 30.00R MONTAUK POINT N/A 59 50 72 CALM 30.00R $$ NYZ052-065-067-180100- HUDSON VALLEY CITY SKY/WX TMP DP RH WIND PRES REMARKS WHITE PLAINS CLEAR 59 48 67 CALM 29.98R NEWBURGH PTCLDY 59 50 72 W6 29.99R MONTGOMERY CLEAR 55 49 80 CALM 29.98R POUGHKEEPSIE CLEAR 56 49 77 CALM 29.97R ALBANY PTCLDY 56 48 74 CALM 29.98R $$ NJZ001-105-106-008-010-013-015-019>022-104-180100- NEW JERSEY CITY SKY/WX TMP DP RH WIND PRES REMARKS NEWARK/LIBERTY PTCLDY 68 43 40 NW6 29.98R TETERBORO CLEAR 68 41 37 CALM 29.97R CALDWELL CLEAR 61 45 55 CALM 29.99R MORRISTOWN PTCLDY 55 48 76 CALM 29.99R SOMERVILLE CLEAR 57 50 77 CALM 29.97R LINDEN FAIR 71 48 43 NW3 29.99S SUSSEX CLEAR 57 50 77 CALM 29.99R ANDOVER N/A 53 50 89 CALM 29.99R TRENTON CLEAR 64 47 53 CALM 29.97S MILLVILLE CLEAR 61 52 72 CALM 29.98S ATLANTIC CITY CLEAR 58 54 86 E3 29.99R WRIGHTSTOWN PTCLDY 61 53 76 SE5 29.96S TOMS RIVER CLEAR 55 52 88 CALM 29.99S BELMAR MOCLDY 61 48 63 CALM 29.99R $$ PAZ047>061-062-071-180100- EASTERN PENNSYLVANIA CITY SKY/WX TMP DP RH WIND PRES REMARKS PHILADELPHIA PTCLDY 70 49 47 S6 29.97F ALLENTOWN CLEAR 65 44 46 W5 29.98S SCRANTON CLEAR 59 42 53 S3 29.99R $$ CTZ002-004>006-009-010-012-RIZ004-006-007-MAZ004-011-015-180100- SOUTHERN NEW ENGLAND IN CT CITY SKY/WX TMP DP RH WIND PRES REMARKS BRADLEY INTL PTCLDY 58 49 72 W3 29.97R HARTFORD CLEAR 59 48 67 CALM 29.98R DANBURY CLEAR 54 49 83 SW3 30.00R WTRBRY/OXFORD PTCLDY 54 45 71 CALM 29.99S BRIDGEPORT CLEAR 63 47 55 CALM 29.98R MERIDEN CLEAR 55 47 74 CALM 29.99R NEW HAVEN CLEAR 59 47 64 CALM 29.99R CHESTER FAIR 57 50 77 W3 29.99R GROTON CLEAR 60 49 66 W3 29.97R WILLIMANTIC MOCLDY 59 49 69 CALM 29.99R IN RI CITY SKY/WX TMP DP RH WIND PRES REMARKS PROVIDENCE PTCLDY 62 45 53 W6 29.98R BLOCK ISLAND CLEAR 61 46 59 SW7 29.99R WESTERLY CLEAR 60 49 66 CALM 29.99R IN MA CITY SKY/WX TMP DP RH WIND PRES REMARKS BOSTON PTCLDY 63 50 62 SE5 29.97R WORCESTER CLEAR 52 47 83 NW6 29.99R WESTFIELD CLEAR 56 50 80 N3 29.98R PROVINCETOWN CLEAR 63 52 67 SW12 29.97R NANTUCKET CLEAR 61 56 83 S6 29.99R $$ ANZ330-335-338-340-345-350-353-355-180100- COASTAL MARINE OBSERVATIONS STATION/POSITION TIME SKY/WX TEMP WIND PRES VSBY WAVE AIR SEA DIR/SP/G HT/PER (UTC) (F) (DEG/KT/KT) (MB) (MI) (FT/S) NY HARB ENTRANCE NOT AVBL 4S FIRE IS 0000 70 N/A 3/13 23SW MTP 0000 N/A 4/12 HUDSON CANYON 0000 66 74 10/ 4/ 6 1015.4 4/13 EXECUTION ROCKS 0000 69 71 100/ 2/ 8 N/A WESTERN LI SOUND 2300 69 280/ 2/ 4 N/A 0 CENTRAL LI SOUND 2300 67 71 260/ 8/ 10 N/A 1 EASTERN LI SOUND 2300 67 68 270/ 10/ 12 N/A ROBBINS REEF 0000 67 180/ 11/ 13 1013.8 $$ >>>>>>>>>>>>>>>>>>>>>>>>>>>> KEY <<<<<<<<<<<<<<<<<<<<<<<<<<< > < > SKY/WX - SKY CONDITION/PRESENT WEATHER < > TMP - TEMPERATURE IN FAHRENHEIT < > DP - DEWPOINT IN FAHRENHEIT < > RH - RELATIVE HUMIDITY IN PERCENT < > WIND - DIRECTION AND SPEED IN MPH < > PRES - MEAN SEA LEVEL PRESSURE IN INCHES OF HG < > WCI - WIND CHILL INDEX < > VSB - VISIBILITY IN MILES < > HX - HEAT INDEX < > TC - TEMPERATURE IN CELSIUS < > VRB - VARIABLE WIND DIRECTION < > < >>>>>>>>>>>>>>>>>>>>>>>>>>>> KEY <<<<<<<<<<<<<<<<<<<<<<<<<<<

USA.gov is the U.S. government's official web portal to all federal, state and local government web resources and services.